DW2584 Weather Reports


time (UTC)temp
C
wind
direction
speed
KPH
gust
KPH
rain 1hr
cm
rain 24hr
cm
rain mn
cm
humidity
%
barometer
mb
20260506091519 3 4 0.0 8.0 0.00 0.46 0.00 85 1016.7
20260506090016 3 133 1.6 6.4 0.00 0.46 0.00 84 1016.7
20260506084517 3 133 0.0 3.2 0.00 0.46 0.00 84 1016.6
20260506083015 3 133 1.6 4.8 0.00 0.46 0.00 84 1016.6
20260506081515 3 133 1.6 6.4 0.00 0.46 0.00 84 1016.7
20260506073010 4 103 1.6 6.4 0.00 0.46 0.00 84 1017.0
20260506071508 5 103 0.0 3.2 0.00 0.46 0.00 83 1017.0
20260506061604 5 103 3.2 9.7 0.03 0.46 0.00 83 1016.9
20260506044603 5 282 9.7 16.1 0.05 0.43 0.43 83 1017.4
20260506043053 6 88 1.6 9.7 0.03 0.41 0.41 83 1016.7
20260506041604 5 37 6.4 14.5 0.03 0.41 0.41 83 1016.4
20260506040054 5 12 8.0 19.3 0.00 0.38 0.38 84 1016.5
20260506034550 5 45 9.7 17.7 0.10 0.38 0.38 84 1016.7
20260506033052 5 15 11.3 24.1 0.10 0.38 0.38 83 1016.9
20260506031547 5 359 9.7 22.5 0.13 0.38 0.38 82 1016.9
20260506030042 6 316 11.3 27.4 0.13 0.38 0.38 80 1016.3
20260506024540 7 264 16.1 20.9 0.03 0.28 0.28 78 1016.4
20260506023049 7 12 9.7 14.5 0.10 0.28 0.28 79 1015.0
20260506021538 6 21 6.4 12.9 0.25 0.25 0.25 79 1015.0
20260506020107 7 24 3.2 14.5 0.25 0.25 0.25 78 1015.0
20260506014536 6 299 9.7 20.9 0.25 0.25 0.25 77 1014.8
20260506013032 8 281 20.9 41.8 0.15 0.15 0.15 58 1015.2
20260506011533 12 248 11.3 16.1 0.00 0.00 0.00 46 1013.9
20260506010031 12 243 12.9 29.0 0.00 0.00 0.00 44 1013.8
20260506004534 12 216 11.3 33.8 0.00 0.00 0.00 43 1013.8
20260506003029 12 212 14.5 33.8 0.00 0.00 0.00 43 1013.8
20260506001529 12 223 16.1 30.6 0.00 0.00 0.00 43 1013.7
20260506000048 13 241 24.1 38.6 0.00 0.00 0.00 44 1013.8
20260505234528 12 205 19.3 38.6 0.00 0.00 0.00 45 1013.7
20260505233028 12 204 24.1 40.2 0.00 0.00 0.00 46 1013.8
20260505231530 12 222 20.9 41.8 0.00 0.00 0.00 45 1013.8
20260505230040 12 210 20.9 41.8 0.00 0.00 0.00 45 1013.6
20260505224525 12 197 19.3 41.8 0.00 0.00 0.00 45 1013.5
20260505223023 13 181 24.1 35.4 0.00 0.00 0.00 43 1013.7
20260505221523 13 187 17.7 30.6 0.00 0.00 0.00 43 1013.7
20260505220022 13 197 17.7 40.2 0.00 0.00 0.00 42 1013.7
20260505214521 13 210 14.5 27.4 0.00 0.00 0.00 42 1013.8
20260505213023 13 251 20.9 37.0 0.00 0.00 0.00 44 1014.2
20260505211528 12 308 14.5 35.4 0.00 0.00 0.00 46 1014.4
20260505210017 12 359 19.3 32.2 0.00 0.00 0.00 47 1014.4
20260505204515 12 272 19.3 40.2 0.00 0.00 0.00 49 1014.9
20260505203016 11 262 22.5 33.8 0.00 0.00 0.00 49 1015.0
20260505201513 12 251 16.1 33.8 0.00 0.00 0.00 50 1015.1
20260505200012 11 219 19.3 38.6 0.00 0.00 0.00 51 1015.1
20260505194512 11 245 19.3 38.6 0.00 0.00 0.00 53 1014.9
20260505193011 12 237 16.1 35.4 0.00 0.00 0.00 50 1015.0
20260505191512 11 235 20.9 40.2 0.00 0.00 0.00 49 1015.0
20260505190008 11 240 16.1 32.2 0.00 0.00 0.00 48 1015.0
20260505184507 12 195 11.3 27.4 0.00 0.00 0.00 43 1014.9
20260505183012 12 359 14.5 24.1 0.00 0.00 0.00 40 1015.0
20260505181506 12 359 11.3 17.7 0.00 0.00 0.00 40 1014.9
20260505180004 11 359 9.7 19.3 0.00 0.00 0.00 40 1015.0
20260505174503 11 172 6.4 20.9 0.00 0.00 0.00 40 1015.4
20260505173002 12 160 9.7 19.3 0.00 0.00 0.00 38 1015.4
20260505171501 12 140 3.2 12.9 0.00 0.00 0.00 39 1015.4
20260505170059 11 359 3.2 16.1 0.00 0.00 0.00 41 1015.4
20260505164559 10 230 12.9 20.9 0.00 0.00 0.00 42 1015.7
20260505163056 10 203 14.5 24.1 0.00 0.00 0.00 44 1015.8
20260505161554 10 251 16.1 22.5 0.00 0.00 0.00 44 1015.8
20260505153050 10 251 17.7 32.2 0.00 0.00 0.00 46 1016.0
20260505151547 10 245 17.7 24.1 0.00 0.00 0.00 45 1015.9
20260505124531 9 253 9.7 14.5 0.00 0.00 0.00 43 1016.1
20260505123043 9 262 4.8 12.9 0.00 0.00 0.00 41 1016.1
20260505121525 9 297 4.8 6.4 0.00 0.00 0.00 41 1015.8
20260505120021 9 330 3.2 9.7 0.00 0.00 0.00 40 1015.6
20260505114517 9 303 4.8 8.0 0.00 0.00 0.00 39 1015.6
20260505113015 10 263 6.4 9.7 0.00 0.00 0.00 38 1015.8
20260505111511 10 244 1.6 6.4 0.00 0.00 0.00 38 1015.8
20260505101504 11 272 9.7 17.7 0.00 0.00 0.00 34 1015.5
20260505100004 11 266 8.0 14.5 0.00 0.00 0.00 35 1015.5
20260505094501 11 272 8.0 19.3 0.00 0.00 0.00 34 1015.5
20260505093100 11 229 11.3 22.5 0.00 0.00 0.00 35 1015.5